Regional Weather Roundup
Issued by NWS

Home | Current Version | Previous Version | Graphics & Text | Print | Product List | Glossary Off
Versions: 1 2 3 4 5 6 7 8 9 10 11 12 13 14 15 16 17 18 19 20 21 22 23 24 25 26 27 28 29 30 31 32 33 34 35 36 37 38 39 40 41 42 43 44 45 46 47 48 49 50

000
ASUS43 KTOP 151759
RWRKS

WEATHER ROUNDUP FOR KANSAS
NATIONAL WEATHER SERVICE GOODLAND KS
100 PM CDT TUE APR 15 2014

NOTE:  "FAIR" INDICATES FEW OR NO CLOUDS BELOW 12,000 FEET WITH NO
SIGNIFICANT WEATHER AND/OR OBSTRUCTIONS TO VISIBILITY.

KSZ001>006-013>018-027>032-041>047-151900-
NORTHWEST KANSAS

CITY           SKY/WX    TMP DP  RH WIND       PRES   REMARKS
GOODLAND       MOSUNNY   61  20  20 SW21      29.94F
6HR MIN TEMP:  28; 6HR MAX TEMP:  61;

HAYS           SUNNY     59  18  20 SW15G23   30.04F
HILL CITY      SUNNY     60  16  18 SW20G31   30.00F
6HR MIN TEMP:  20; 6HR MAX TEMP:  60;

RUSSELL        SUNNY     59  16  18 SW23      30.04F
6HR MIN TEMP:  18; 6HR MAX TEMP:  60;

$$

KSZ061>065-074>080-084>089-151900-
SOUTHWEST KANSAS

CITY           SKY/WX    TMP DP  RH WIND       PRES   REMARKS
DODGE CITY     SUNNY     57  24  28 S22G30    30.07F
6HR MIN TEMP:  28; 6HR MAX TEMP:  57;

ELKHART          N/A     55  25  31 S15         N/A
GARDEN CITY    SUNNY     57  27  31 SW18G30   30.03F
6HR MIN TEMP:  23; 6HR MAX TEMP:  57;

GREAT BEND     SUNNY     57  18  21 S15G23    30.07F
LIBERAL        SUNNY     57  28  33 SW25G31   30.08F
$$

KSZ066>073-081>083-090>101-151900-
SOUTHEAST KANSAS

CITY           SKY/WX    TMP DP  RH WIND       PRES   REMARKS
CHANUTE        SUNNY     50  24  36 SE3       30.21F
6HR MIN TEMP:  25; 6HR MAX TEMP:  51;

COFFEYVILLE    SUNNY     54  24  31 VRB3      30.21F
6HR MIN TEMP:  26; 6HR MAX TEMP:  54;

HUTCHINSON     SUNNY     58  18  21 SW18      30.12F
6HR MIN TEMP:  23; 6HR MAX TEMP:  58;

MEDICINE LODGE   N/A     58  14  17 SW8G20    30.13F
NEWTON         SUNNY     54  23  30 SW8G20    30.18F
PARSONS        SUNNY     55  23  28 VRB3      30.21F
6HR MIN TEMP:  24; 6HR MAX TEMP:  55;

WICHITA INTL   SUNNY     56  22  26 SW9G20    30.16F
6HR MIN TEMP:  27; 6HR MAX TEMP:  57;

WICHITA JABRA  SUNNY     54  25  32 S10       30.16F
6HR MIN TEMP:  28; 6HR MAX TEMP:  55;

WINFIELD       SUNNY     58  23  26 SW12G21   30.19F
6HR MIN TEMP:  24; 6HR MAX TEMP:  58;

$$

KSZ007>012-019>026-033>040-048>060-102>105-151900-
NORTHEAST KANSAS

CITY           SKY/WX    TMP DP  RH WIND       PRES   REMARKS
CONCORDIA      SUNNY     54  21  27 S14G23    30.08F
6HR MIN TEMP:  22; 6HR MAX TEMP:  54;

EMPORIA        SUNNY     52  21  29 SW10G16   30.16F
6HR MIN TEMP:  27; 6HR MAX TEMP:  52;

LAWRENCE       SUNNY     49  24  37 SE7       30.19F
6HR MIN TEMP:  22; 6HR MAX TEMP:  50;

MANHATTAN      SUNNY     53  22  29 VRB7G20   30.13F
6HR MIN TEMP:  22; 6HR MAX TEMP:  54;

OLATHE IND     SUNNY     47  23  38 VRB6      30.20F
6HR MIN TEMP:  25; 6HR MAX TEMP:  47; 6HR PCP: TRACE;

OLATHE EXE     SUNNY     46  24  42 VRB3      30.18F
6HR MIN TEMP:  27; 6HR MAX TEMP:  46;

SALINA         SUNNY     56  21  25 S10G21    30.11F
6HR MIN TEMP:  21; 6HR MAX TEMP:  57;

TOPEKA BILLARD SUNNY     51  24  34 E6        30.18F
6HR MIN TEMP:  27; 6HR MAX TEMP:  51;

TOPEKA FORBES  SUNNY     49  21  33 S5        30.17F
6HR MIN TEMP:  25; 6HR MAX TEMP:  49;

$$



USA.gov is the U.S. government's official web portal to all federal, state and local government web resources and services.